Zurück zum Katalog

STARLINK-6322

AktivKommunikationVLEO
NORAD 57337·PAYLOAD·🇺🇸 United States

Gestartet Jul 16, 2023 von Cape Canaveral Space Force Station

Loading…

Nächste Überflüge (nächste 24 Stunden)

TLE

AktuellSource: CelesTrak SupGP

Epoche: Sep 15, 2026, 02:39 UTC

1 57337C 23099K   26258.11090278 -.00018229  00000+0 -66031-3 0  2589
2 57337  42.9994 262.8229 0001264 260.5135 109.7415 15.27585611    19

Verfolge STARLINK-6322 in Echtzeit mit AllMySat

Download on the App Store